owner,sensor,date,latitude,longitude,vertical_datum,mass_concentration_of_oxygen_in_sea_water,qcFlag 
DISL,ioos:station:DISL:BSCA:1,2019-08-01T00:30:00Z,30.3288,-87.8293,1.776,5.5,11111222 
DISL,ioos:station:DISL:BSCA:1,2019-08-01T01:30:00Z,30.3288,-87.8293,1.739,8.4,11111222 
DISL,ioos:station:DISL:BSCA:1,2019-08-01T02:30:00Z,30.3288,-87.8293,1.699,7.05,11111222 
DISL,ioos:station:DISL:BSCA:1,2019-08-01T03:30:00Z,30.3288,-87.8293,1.678,5.48,11111222 
DISL,ioos:station:DISL:BSCA:1,2019-08-01T04:30:00Z,30.3288,-87.8293,1.686,7.07,11111222 
DISL,ioos:station:DISL:BSCA:1,2019-08-01T05:30:00Z,30.3288,-87.8293,1.712,7.53,11111222 
DISL,ioos:station:DISL:BSCA:1,2019-08-01T06:30:00Z,30.3288,-87.8293,1.794,7.47,11111222 
DISL,ioos:station:DISL:BSCA:1,2019-08-01T07:30:00Z,30.3288,-87.8293,1.865,7.96,11111222 
DISL,ioos:station:DISL:BSCA:1,2019-08-01T08:30:00Z,30.3288,-87.8293,1.916,7.83,11111222 
DISL,ioos:station:DISL:BSCA:1,2019-08-01T09:30:00Z,30.3288,-87.8293,1.97,7.77,11111222 
DISL,ioos:station:DISL:BSCA:1,2019-08-01T10:30:00Z,30.3288,-87.8293,2.03,7.95,11111222 
DISL,ioos:station:DISL:BSCA:1,2019-08-01T11:30:00Z,30.3288,-87.8293,2.097,7.02,11111222 
DISL,ioos:station:DISL:BSCA:1,2019-08-01T12:30:00Z,30.3288,-87.8293,2.163,6.71,11111222 
DISL,ioos:station:DISL:BSCA:1,2019-08-01T13:30:00Z,30.3288,-87.8293,2.244,6.79,11111222 
DISL,ioos:station:DISL:BSCA:1,2019-08-01T14:30:00Z,30.3288,-87.8293,2.297,6.81,11111222 
DISL,ioos:station:DISL:BSCA:1,2019-08-01T15:30:00Z,30.3288,-87.8293,2.329,6.49,11111222 
DISL,ioos:station:DISL:BSCA:1,2019-08-01T16:30:00Z,30.3288,-87.8293,2.34,3.72,11111222 
DISL,ioos:station:DISL:BSCA:1,2019-08-01T17:30:00Z,30.3288,-87.8293,2.307,2.42,11111222 
DISL,ioos:station:DISL:BSCA:1,2019-08-01T18:30:00Z,30.3288,-87.8293,2.284,2.39,11111222 
DISL,ioos:station:DISL:BSCA:1,2019-08-01T19:30:00Z,30.3288,-87.8293,2.216,4.14,11111222 
DISL,ioos:station:DISL:BSCA:1,2019-08-01T20:30:00Z,30.3288,-87.8293,2.121,5.23,11111222 
DISL,ioos:station:DISL:BSCA:1,2019-08-01T21:30:00Z,30.3288,-87.8293,2.029,5.79,11111222 
DISL,ioos:station:DISL:BSCA:1,2019-08-01T22:30:00Z,30.3288,-87.8293,1.967,9.96,11111222 
DISL,ioos:station:DISL:BSCA:1,2019-08-01T23:30:00Z,30.3288,-87.8293,1.929,10.24,11133222 
DISL,ioos:station:DISL:BSCA:1,2019-08-02T00:30:00Z,30.3288,-87.8293,1.847,10.18,11133222 
DISL,ioos:station:DISL:BSCA:1,2019-08-02T01:30:00Z,30.3288,-87.8293,1.814,7.01,11111222 
DISL,ioos:station:DISL:BSCA:1,2019-08-02T02:30:00Z,30.3288,-87.8293,1.738,7.95,11111222 
DISL,ioos:station:DISL:BSCA:1,2019-08-02T03:30:00Z,30.3288,-87.8293,1.682,9.63,11111222 
DISL,ioos:station:DISL:BSCA:1,2019-08-02T04:30:00Z,30.3288,-87.8293,1.684,8.41,11111222 
DISL,ioos:station:DISL:BSCA:1,2019-08-02T05:30:00Z,30.3288,-87.8293,1.674,7.78,11111222 
DISL,ioos:station:DISL:BSCA:1,2019-08-02T06:30:00Z,30.3288,-87.8293,1.704,6.72,11111222 
DISL,ioos:station:DISL:BSCA:1,2019-08-02T07:30:00Z,30.3288,-87.8293,1.756,6.14,11111222 
DISL,ioos:station:DISL:BSCA:1,2019-08-02T08:30:00Z,30.3288,-87.8293,1.834,5.33,11111222 
DISL,ioos:station:DISL:BSCA:1,2019-08-02T09:30:00Z,30.3288,-87.8293,1.915,1.54,11111222 
DISL,ioos:station:DISL:BSCA:1,2019-08-02T10:30:00Z,30.3288,-87.8293,1.968,2.98,11111222 
DISL,ioos:station:DISL:BSCA:1,2019-08-02T11:30:00Z,30.3288,-87.8293,2.048,5.73,11111222 
DISL,ioos:station:DISL:BSCA:1,2019-08-02T12:30:00Z,30.3288,-87.8293,2.098,2.95,11111222 
DISL,ioos:station:DISL:BSCA:1,2019-08-02T13:30:00Z,30.3288,-87.8293,2.191,4.94,11111222 
DISL,ioos:station:DISL:BSCA:1,2019-08-02T14:30:00Z,30.3288,-87.8293,2.275,3.81,11111222 
DISL,ioos:station:DISL:BSCA:1,2019-08-02T15:30:00Z,30.3288,-87.8293,2.326,3.88,11111222 
DISL,ioos:station:DISL:BSCA:1,2019-08-02T16:30:00Z,30.3288,-87.8293,2.343,3.86,11111222 
DISL,ioos:station:DISL:BSCA:1,2019-08-02T17:30:00Z,30.3288,-87.8293,2.358,3.78,11111222 
DISL,ioos:station:DISL:BSCA:1,2019-08-02T18:30:00Z,30.3288,-87.8293,2.345,3.5,11111222 
DISL,ioos:station:DISL:BSCA:1,2019-08-02T19:30:00Z,30.3288,-87.8293,2.28,4.97,11111222 
DISL,ioos:station:DISL:BSCA:1,2019-08-02T20:30:00Z,30.3288,-87.8293,2.191,4.86,11111222 
DISL,ioos:station:DISL:BSCA:1,2019-08-02T21:30:00Z,30.3288,-87.8293,2.128,3.01,11111222 
DISL,ioos:station:DISL:BSCA:1,2019-08-02T22:30:00Z,30.3288,-87.8293,2.059,5.11,11111222 
DISL,ioos:station:DISL:BSCA:1,2019-08-02T23:30:00Z,30.3288,-87.8293,1.981,5.52,11111222 
DISL,ioos:station:DISL:BSCA:1,2019-08-03T00:30:00Z,30.3288,-87.8293,1.903,5.24,11111222 
DISL,ioos:station:DISL:BSCA:1,2019-08-03T01:30:00Z,30.3288,-87.8293,1.827,4.89,11111222 
DISL,ioos:station:DISL:BSCA:1,2019-08-03T02:30:00Z,30.3288,-87.8293,1.748,4.63,11111222 
DISL,ioos:station:DISL:BSCA:1,2019-08-03T03:30:00Z,30.3288,-87.8293,1.718,3.94,11111222 
DISL,ioos:station:DISL:BSCA:1,2019-08-03T04:30:00Z,30.3288,-87.8293,1.71,1.36,11111222 
DISL,ioos:station:DISL:BSCA:1,2019-08-03T05:30:00Z,30.3288,-87.8293,1.717,3.66,11111222 
DISL,ioos:station:DISL:BSCA:1,2019-08-03T06:30:00Z,30.3288,-87.8293,1.776,1.49,11111222 
DISL,ioos:station:DISL:BSCA:1,2019-08-03T07:30:00Z,30.3288,-87.8293,1.832,2.95,11111222 
DISL,ioos:station:DISL:BSCA:1,2019-08-03T08:30:00Z,30.3288,-87.8293,1.9,2.01,11111222 
DISL,ioos:station:DISL:BSCA:1,2019-08-03T09:30:00Z,30.3288,-87.8293,1.937,1.66,11111222 
DISL,ioos:station:DISL:BSCA:1,2019-08-03T10:30:00Z,30.3288,-87.8293,1.992,2.01,11111222 
DISL,ioos:station:DISL:BSCA:1,2019-08-03T11:30:00Z,30.3288,-87.8293,2.036,1.53,11111222 
DISL,ioos:station:DISL:BSCA:1,2019-08-03T12:30:00Z,30.3288,-87.8293,2.066,0.81,11111222 
DISL,ioos:station:DISL:BSCA:1,2019-08-03T13:30:00Z,30.3288,-87.8293,2.119,2.75,11111222 
DISL,ioos:station:DISL:BSCA:1,2019-08-03T14:30:00Z,30.3288,-87.8293,2.186,0.76,11111222 
DISL,ioos:station:DISL:BSCA:1,2019-08-03T15:30:00Z,30.3288,-87.8293,2.242,0.63,11111222 
DISL,ioos:station:DISL:BSCA:1,2019-08-03T16:30:00Z,30.3288,-87.8293,2.286,1.11,11111222 
DISL,ioos:station:DISL:BSCA:1,2019-08-03T17:30:00Z,30.3288,-87.8293,2.308,1.11,11111222 
DISL,ioos:station:DISL:BSCA:1,2019-08-03T18:30:00Z,30.3288,-87.8293,2.308,1.02,11111222 
DISL,ioos:station:DISL:BSCA:1,2019-08-03T19:30:00Z,30.3288,-87.8293,2.299,1.75,11111222 
DISL,ioos:station:DISL:BSCA:1,2019-08-03T20:30:00Z,30.3288,-87.8293,2.271,2.34,11111222 
DISL,ioos:station:DISL:BSCA:1,2019-08-03T21:30:00Z,30.3288,-87.8293,2.202,3.78,11111222 
DISL,ioos:station:DISL:BSCA:1,2019-08-03T22:30:00Z,30.3288,-87.8293,2.157,10.41,11133222 
DISL,ioos:station:DISL:BSCA:1,2019-08-03T23:30:00Z,30.3288,-87.8293,2.07,9.74,11111222 
DISL,ioos:station:DISL:BSCA:1,2019-08-04T00:30:00Z,30.3288,-87.8293,1.992,10.17,11133222 
DISL,ioos:station:DISL:BSCA:1,2019-08-04T01:30:00Z,30.3288,-87.8293,1.939,10.35,11133222 
DISL,ioos:station:DISL:BSCA:1,2019-08-04T02:30:00Z,30.3288,-87.8293,1.9,6.32,11111222 
DISL,ioos:station:DISL:BSCA:1,2019-08-04T03:30:00Z,30.3288,-87.8293,1.871,9.25,11111222 
DISL,ioos:station:DISL:BSCA:1,2019-08-04T04:30:00Z,30.3288,-87.8293,1.845,6.46,11111222 
DISL,ioos:station:DISL:BSCA:1,2019-08-04T05:30:00Z,30.3288,-87.8293,1.83,7.53,11111222 
DISL,ioos:station:DISL:BSCA:1,2019-08-04T06:30:00Z,30.3288,-87.8293,1.864,6.21,11111222 
DISL,ioos:station:DISL:BSCA:1,2019-08-04T07:30:00Z,30.3288,-87.8293,1.926,4.05,11111222 
DISL,ioos:station:DISL:BSCA:1,2019-08-04T08:30:00Z,30.3288,-87.8293,1.983,1.24,11111222 
DISL,ioos:station:DISL:BSCA:1,2019-08-04T09:30:00Z,30.3288,-87.8293,2.021,1.45,11111222 
DISL,ioos:station:DISL:BSCA:1,2019-08-04T10:30:00Z,30.3288,-87.8293,2.056,1.63,11111222 
DISL,ioos:station:DISL:BSCA:1,2019-08-04T11:30:00Z,30.3288,-87.8293,2.096,2.38,11111222 
DISL,ioos:station:DISL:BSCA:1,2019-08-04T12:30:00Z,30.3288,-87.8293,2.106,0.97,11111222 
DISL,ioos:station:DISL:BSCA:1,2019-08-04T13:30:00Z,30.3288,-87.8293,2.093,2.24,11111222 
DISL,ioos:station:DISL:BSCA:1,2019-08-04T14:30:00Z,30.3288,-87.8293,2.087,1.95,11111222 
DISL,ioos:station:DISL:BSCA:1,2019-08-04T15:30:00Z,30.3288,-87.8293,2.1,3.89,11111222 
DISL,ioos:station:DISL:BSCA:1,2019-08-04T16:30:00Z,30.3288,-87.8293,2.139,3.07,11111222 
DISL,ioos:station:DISL:BSCA:1,2019-08-04T17:30:00Z,30.3288,-87.8293,2.174,2.04,11111222 
DISL,ioos:station:DISL:BSCA:1,2019-08-04T18:30:00Z,30.3288,-87.8293,2.189,4.42,11111222 
DISL,ioos:station:DISL:BSCA:1,2019-08-04T19:30:00Z,30.3288,-87.8293,2.196,5.47,11111222 
DISL,ioos:station:DISL:BSCA:1,2019-08-04T20:30:00Z,30.3288,-87.8293,2.173,5.83,11111222 
DISL,ioos:station:DISL:BSCA:1,2019-08-04T21:30:00Z,30.3288,-87.8293,2.169,5.73,11111222 
DISL,ioos:station:DISL:BSCA:1,2019-08-04T22:30:00Z,30.3288,-87.8293,2.146,7.61,11111222 
DISL,ioos:station:DISL:BSCA:1,2019-08-04T23:30:00Z,30.3288,-87.8293,2.087,7.45,11111222 
DISL,ioos:station:DISL:BSCA:1,2019-08-05T00:30:00Z,30.3288,-87.8293,2.075,6.79,11111222 
DISL,ioos:station:DISL:BSCA:1,2019-08-05T01:30:00Z,30.3288,-87.8293,2.015,5.61,11111222 
DISL,ioos:station:DISL:BSCA:1,2019-08-05T02:30:00Z,30.3288,-87.8293,1.978,6.4,11111222 
DISL,ioos:station:DISL:BSCA:1,2019-08-05T03:30:00Z,30.3288,-87.8293,1.952,5.32,11111222 
DISL,ioos:station:DISL:BSCA:1,2019-08-05T04:30:00Z,30.3288,-87.8293,1.975,6.96,11111222 
DISL,ioos:station:DISL:BSCA:1,2019-08-05T05:30:00Z,30.3288,-87.8293,1.988,6.67,11111222 
DISL,ioos:station:DISL:BSCA:1,2019-08-05T06:30:00Z,30.3288,-87.8293,1.928,5.63,11111222 
DISL,ioos:station:DISL:BSCA:1,2019-08-05T07:30:00Z,30.3288,-87.8293,1.939,3.15,11111222 
DISL,ioos:station:DISL:BSCA:1,2019-08-05T08:30:00Z,30.3288,-87.8293,2.0,5.89,11111222 
DISL,ioos:station:DISL:BSCA:1,2019-08-05T09:30:00Z,30.3288,-87.8293,2.06,5.05,11111222 
DISL,ioos:station:DISL:BSCA:1,2019-08-05T10:30:00Z,30.3288,-87.8293,2.116,3.73,11111222 
DISL,ioos:station:DISL:BSCA:1,2019-08-05T11:30:00Z,30.3288,-87.8293,2.17,4.98,11111222 
DISL,ioos:station:DISL:BSCA:1,2019-08-05T12:30:00Z,30.3288,-87.8293,2.123,5.45,11111222 
DISL,ioos:station:DISL:BSCA:1,2019-08-05T13:30:00Z,30.3288,-87.8293,2.034,3.84,11111222 
DISL,ioos:station:DISL:BSCA:1,2019-08-05T14:30:00Z,30.3288,-87.8293,2.022,2.74,11111222 
DISL,ioos:station:DISL:BSCA:1,2019-08-05T15:30:00Z,30.3288,-87.8293,2.031,2.74,11111222 
DISL,ioos:station:DISL:BSCA:1,2019-08-05T16:30:00Z,30.3288,-87.8293,2.046,2.48,11111222 
DISL,ioos:station:DISL:BSCA:1,2019-08-05T17:30:00Z,30.3288,-87.8293,2.059,2.71,11111222 
DISL,ioos:station:DISL:BSCA:1,2019-08-05T18:30:00Z,30.3288,-87.8293,2.057,3.05,11111222 
DISL,ioos:station:DISL:BSCA:1,2019-08-05T19:30:00Z,30.3288,-87.8293,2.053,5.79,11111222 
DISL,ioos:station:DISL:BSCA:1,2019-08-05T20:30:00Z,30.3288,-87.8293,2.105,6.62,11111222 
DISL,ioos:station:DISL:BSCA:1,2019-08-05T21:30:00Z,30.3288,-87.8293,2.109,7.27,11111222 
DISL,ioos:station:DISL:BSCA:1,2019-08-05T22:30:00Z,30.3288,-87.8293,2.125,7.75,11111222 
DISL,ioos:station:DISL:BSCA:1,2019-08-05T23:30:00Z,30.3288,-87.8293,2.1,8.05,11111222 
DISL,ioos:station:DISL:BSCA:1,2019-08-06T00:30:00Z,30.3288,-87.8293,2.073,7.75,11111222 
DISL,ioos:station:DISL:BSCA:1,2019-08-06T01:30:00Z,30.3288,-87.8293,2.013,6.71,11111222 
DISL,ioos:station:DISL:BSCA:1,2019-08-06T02:30:00Z,30.3288,-87.8293,1.979,6.46,11111222 
DISL,ioos:station:DISL:BSCA:1,2019-08-06T03:30:00Z,30.3288,-87.8293,1.974,5.53,11111222 
DISL,ioos:station:DISL:BSCA:1,2019-08-06T04:30:00Z,30.3288,-87.8293,1.978,5.51,11111222 
DISL,ioos:station:DISL:BSCA:1,2019-08-06T05:30:00Z,30.3288,-87.8293,1.981,5.38,11111222 
DISL,ioos:station:DISL:BSCA:1,2019-08-06T06:30:00Z,30.3288,-87.8293,2.02,5.43,11111222 
DISL,ioos:station:DISL:BSCA:1,2019-08-06T07:30:00Z,30.3288,-87.8293,2.072,6.02,11111222 
DISL,ioos:station:DISL:BSCA:1,2019-08-06T08:30:00Z,30.3288,-87.8293,2.105,6.02,11111222 
DISL,ioos:station:DISL:BSCA:1,2019-08-06T09:30:00Z,30.3288,-87.8293,2.125,6.06,11111222 
DISL,ioos:station:DISL:BSCA:1,2019-08-06T10:30:00Z,30.3288,-87.8293,2.16,5.9,11111222 
DISL,ioos:station:DISL:BSCA:1,2019-08-06T11:30:00Z,30.3288,-87.8293,2.177,5.95,11111222 
DISL,ioos:station:DISL:BSCA:1,2019-08-06T12:30:00Z,30.3288,-87.8293,2.105,5.64,11111222 
DISL,ioos:station:DISL:BSCA:1,2019-08-06T13:30:00Z,30.3288,-87.8293,2.026,4.86,11111222 
DISL,ioos:station:DISL:BSCA:1,2019-08-06T14:30:00Z,30.3288,-87.8293,1.979,5.43,11111222 
DISL,ioos:station:DISL:BSCA:1,2019-08-06T15:30:00Z,30.3288,-87.8293,1.944,4.72,11111222 
DISL,ioos:station:DISL:BSCA:1,2019-08-06T16:30:00Z,30.3288,-87.8293,1.921,3.8,11111222 
DISL,ioos:station:DISL:BSCA:1,2019-08-06T17:30:00Z,30.3288,-87.8293,1.919,4.1,11111222 
DISL,ioos:station:DISL:BSCA:1,2019-08-06T18:30:00Z,30.3288,-87.8293,1.912,4.29,11111222 
DISL,ioos:station:DISL:BSCA:1,2019-08-06T19:30:00Z,30.3288,-87.8293,1.915,3.32,11111222 
DISL,ioos:station:DISL:BSCA:1,2019-08-06T20:30:00Z,30.3288,-87.8293,1.944,5.1,11111222 
DISL,ioos:station:DISL:BSCA:1,2019-08-06T21:30:00Z,30.3288,-87.8293,1.973,5.61,11111222 
DISL,ioos:station:DISL:BSCA:1,2019-08-06T22:30:00Z,30.3288,-87.8293,1.994,6.37,11111222 
DISL,ioos:station:DISL:BSCA:1,2019-08-06T23:30:00Z,30.3288,-87.8293,2.029,5.72,11111222 
DISL,ioos:station:DISL:BSCA:1,2019-08-07T00:30:00Z,30.3288,-87.8293,2.05,5.92,11111222 
DISL,ioos:station:DISL:BSCA:1,2019-08-07T01:30:00Z,30.3288,-87.8293,2.055,5.76,11111222 
DISL,ioos:station:DISL:BSCA:1,2019-08-07T02:30:00Z,30.3288,-87.8293,2.023,5.62,11111222 
DISL,ioos:station:DISL:BSCA:1,2019-08-07T03:30:00Z,30.3288,-87.8293,1.983,4.88,11111222 
DISL,ioos:station:DISL:BSCA:1,2019-08-07T04:30:00Z,30.3288,-87.8293,1.973,4.29,11111222 
DISL,ioos:station:DISL:BSCA:1,2019-08-07T05:30:00Z,30.3288,-87.8293,2.01,3.68,11111222 
DISL,ioos:station:DISL:BSCA:1,2019-08-07T06:30:00Z,30.3288,-87.8293,2.039,4.34,11111222 
DISL,ioos:station:DISL:BSCA:1,2019-08-07T07:30:00Z,30.3288,-87.8293,2.063,4.39,11111222 
DISL,ioos:station:DISL:BSCA:1,2019-08-07T08:30:00Z,30.3288,-87.8293,2.082,4.86,11111222 
DISL,ioos:station:DISL:BSCA:1,2019-08-07T09:30:00Z,30.3288,-87.8293,2.093,4.66,11111222 
DISL,ioos:station:DISL:BSCA:1,2019-08-07T10:30:00Z,30.3288,-87.8293,2.106,4.25,11111222 
DISL,ioos:station:DISL:BSCA:1,2019-08-07T11:30:00Z,30.3288,-87.8293,2.12,4.37,11111222 
DISL,ioos:station:DISL:BSCA:1,2019-08-07T12:30:00Z,30.3288,-87.8293,2.089,5.45,11111222 
DISL,ioos:station:DISL:BSCA:1,2019-08-07T13:30:00Z,30.3288,-87.8293,2.028,4.91,11111222 
DISL,ioos:station:DISL:BSCA:1,2019-08-07T14:30:00Z,30.3288,-87.8293,2.002,4.75,11111222 
DISL,ioos:station:DISL:BSCA:1,2019-08-07T15:30:00Z,30.3288,-87.8293,1.962,4.94,11111222 
DISL,ioos:station:DISL:BSCA:1,2019-08-07T16:30:00Z,30.3288,-87.8293,1.928,5.36,11111222 
DISL,ioos:station:DISL:BSCA:1,2019-08-07T17:30:00Z,30.3288,-87.8293,1.912,6.23,11111222 
DISL,ioos:station:DISL:BSCA:1,2019-08-07T18:30:00Z,30.3288,-87.8293,1.873,7.84,11111222 
DISL,ioos:station:DISL:BSCA:1,2019-08-07T19:30:00Z,30.3288,-87.8293,1.84,7.97,11111222 
DISL,ioos:station:DISL:BSCA:1,2019-08-07T20:30:00Z,30.3288,-87.8293,1.846,7.36,11111222 
DISL,ioos:station:DISL:BSCA:1,2019-08-07T21:30:00Z,30.3288,-87.8293,1.878,7.51,11111222 
DISL,ioos:station:DISL:BSCA:1,2019-08-07T22:30:00Z,30.3288,-87.8293,1.831,6.7,11111222 
DISL,ioos:station:DISL:BSCA:1,2019-08-07T23:30:00Z,30.3288,-87.8293,1.883,6.88,11111222 
DISL,ioos:station:DISL:BSCA:1,2019-08-08T00:30:00Z,30.3288,-87.8293,1.907,6.79,11111222 
DISL,ioos:station:DISL:BSCA:1,2019-08-08T01:30:00Z,30.3288,-87.8293,1.907,6.53,11111222 
DISL,ioos:station:DISL:BSCA:1,2019-08-08T02:30:00Z,30.3288,-87.8293,1.926,5.74,11111222 
DISL,ioos:station:DISL:BSCA:1,2019-08-08T03:30:00Z,30.3288,-87.8293,1.947,5.4,11111222 
DISL,ioos:station:DISL:BSCA:1,2019-08-08T04:30:00Z,30.3288,-87.8293,1.968,5.29,11111222 
DISL,ioos:station:DISL:BSCA:1,2019-08-08T05:30:00Z,30.3288,-87.8293,1.992,4.89,11111222 
DISL,ioos:station:DISL:BSCA:1,2019-08-08T06:30:00Z,30.3288,-87.8293,2.043,5.03,11111222 
DISL,ioos:station:DISL:BSCA:1,2019-08-08T07:30:00Z,30.3288,-87.8293,2.095,5.16,11111222 
DISL,ioos:station:DISL:BSCA:1,2019-08-08T08:30:00Z,30.3288,-87.8293,2.117,5.13,11111222 
DISL,ioos:station:DISL:BSCA:1,2019-08-08T09:30:00Z,30.3288,-87.8293,2.147,4.85,11111222 
DISL,ioos:station:DISL:BSCA:1,2019-08-08T10:30:00Z,30.3288,-87.8293,2.124,5.25,11111222 
DISL,ioos:station:DISL:BSCA:1,2019-08-08T11:30:00Z,30.3288,-87.8293,2.111,4.32,11111222 
DISL,ioos:station:DISL:BSCA:1,2019-08-08T12:30:00Z,30.3288,-87.8293,2.119,4.53,11111222 
DISL,ioos:station:DISL:BSCA:1,2019-08-08T13:30:00Z,30.3288,-87.8293,2.082,4.8,11111222 
DISL,ioos:station:DISL:BSCA:1,2019-08-08T14:30:00Z,30.3288,-87.8293,2.019,4.88,11111222 
DISL,ioos:station:DISL:BSCA:1,2019-08-08T15:30:00Z,30.3288,-87.8293,1.968,5.02,11111222 
DISL,ioos:station:DISL:BSCA:1,2019-08-08T16:30:00Z,30.3288,-87.8293,1.913,5.04,11111222 
DISL,ioos:station:DISL:BSCA:1,2019-08-08T17:30:00Z,30.3288,-87.8293,1.844,4.39,11111222 
DISL,ioos:station:DISL:BSCA:1,2019-08-08T18:30:00Z,30.3288,-87.8293,1.787,3.9,11111222 
DISL,ioos:station:DISL:BSCA:1,2019-08-08T19:30:00Z,30.3288,-87.8293,1.75,4.82,11111222 
DISL,ioos:station:DISL:BSCA:1,2019-08-08T20:30:00Z,30.3288,-87.8293,1.744,6.41,11111222 
DISL,ioos:station:DISL:BSCA:1,2019-08-08T21:30:00Z,30.3288,-87.8293,1.731,5.11,11111222 
DISL,ioos:station:DISL:BSCA:1,2019-08-08T22:30:00Z,30.3288,-87.8293,1.714,6.88,11111222 
DISL,ioos:station:DISL:BSCA:1,2019-08-08T23:30:00Z,30.3288,-87.8293,1.764,8.31,11111222 
DISL,ioos:station:DISL:BSCA:1,2019-08-09T00:30:00Z,30.3288,-87.8293,1.821,6.75,11111222 
DISL,ioos:station:DISL:BSCA:1,2019-08-09T01:30:00Z,30.3288,-87.8293,1.833,7.23,11111222 
DISL,ioos:station:DISL:BSCA:1,2019-08-09T02:30:00Z,30.3288,-87.8293,1.854,6.11,11111222 
DISL,ioos:station:DISL:BSCA:1,2019-08-09T03:30:00Z,30.3288,-87.8293,1.871,5.6,11111222 
DISL,ioos:station:DISL:BSCA:1,2019-08-09T04:30:00Z,30.3288,-87.8293,1.872,3.86,11111222 
DISL,ioos:station:DISL:BSCA:1,2019-08-09T05:30:00Z,30.3288,-87.8293,1.927,4.48,11111222 
DISL,ioos:station:DISL:BSCA:1,2019-08-09T06:30:00Z,30.3288,-87.8293,1.979,4.94,11111222 
DISL,ioos:station:DISL:BSCA:1,2019-08-09T07:30:00Z,30.3288,-87.8293,2.057,5.06,11111222 
DISL,ioos:station:DISL:BSCA:1,2019-08-09T08:30:00Z,30.3288,-87.8293,2.097,4.67,11111222 
DISL,ioos:station:DISL:BSCA:1,2019-08-09T09:30:00Z,30.3288,-87.8293,2.124,4.09,11111222 
DISL,ioos:station:DISL:BSCA:1,2019-08-09T10:30:00Z,30.3288,-87.8293,2.131,4.06,11111222 
DISL,ioos:station:DISL:BSCA:1,2019-08-09T11:30:00Z,30.3288,-87.8293,2.121,4.44,11111222 
DISL,ioos:station:DISL:BSCA:1,2019-08-09T12:30:00Z,30.3288,-87.8293,2.11,4.14,11111222 
DISL,ioos:station:DISL:BSCA:1,2019-08-09T13:30:00Z,30.3288,-87.8293,2.089,4.16,11111222 
DISL,ioos:station:DISL:BSCA:1,2019-08-09T14:30:00Z,30.3288,-87.8293,2.057,3.91,11111222 
DISL,ioos:station:DISL:BSCA:1,2019-08-09T15:30:00Z,30.3288,-87.8293,2.014,4.15,11111222 
DISL,ioos:station:DISL:BSCA:1,2019-08-09T16:30:00Z,30.3288,-87.8293,1.93,5.26,11111222 
DISL,ioos:station:DISL:BSCA:1,2019-08-09T17:30:00Z,30.3288,-87.8293,1.86,4.05,11111222 
DISL,ioos:station:DISL:BSCA:1,2019-08-09T18:30:00Z,30.3288,-87.8293,1.813,5.46,11111222 
DISL,ioos:station:DISL:BSCA:1,2019-08-09T19:30:00Z,30.3288,-87.8293,1.775,5.83,11111222 
DISL,ioos:station:DISL:BSCA:1,2019-08-09T20:30:00Z,30.3288,-87.8293,1.741,4.98,11111222 
DISL,ioos:station:DISL:BSCA:1,2019-08-09T21:30:00Z,30.3288,-87.8293,1.723,6.33,11111222 
DISL,ioos:station:DISL:BSCA:1,2019-08-09T22:30:00Z,30.3288,-87.8293,1.723,4.41,11111222 
DISL,ioos:station:DISL:BSCA:1,2019-08-09T23:30:00Z,30.3288,-87.8293,1.626,5.18,11111222 
DISL,ioos:station:DISL:BSCA:1,2019-08-10T00:30:00Z,30.3288,-87.8293,1.571,5.46,11111222 
DISL,ioos:station:DISL:BSCA:1,2019-08-10T01:30:00Z,30.3288,-87.8293,1.628,5.71,11111222 
DISL,ioos:station:DISL:BSCA:1,2019-08-10T02:30:00Z,30.3288,-87.8293,1.714,5.26,11111222 
DISL,ioos:station:DISL:BSCA:1,2019-08-10T03:30:00Z,30.3288,-87.8293,1.793,4.31,11111222 
DISL,ioos:station:DISL:BSCA:1,2019-08-10T04:30:00Z,30.3288,-87.8293,1.821,5.81,11111222 
DISL,ioos:station:DISL:BSCA:1,2019-08-10T05:30:00Z,30.3288,-87.8293,1.827,5.45,11111222 
DISL,ioos:station:DISL:BSCA:1,2019-08-10T06:30:00Z,30.3288,-87.8293,1.871,4.58,11111222 
DISL,ioos:station:DISL:BSCA:1,2019-08-10T07:30:00Z,30.3288,-87.8293,1.946,3.88,11111222 
DISL,ioos:station:DISL:BSCA:1,2019-08-10T08:30:00Z,30.3288,-87.8293,2.02,3.56,11111222 
DISL,ioos:station:DISL:BSCA:1,2019-08-10T09:30:00Z,30.3288,-87.8293,2.081,4.03,11111222 
DISL,ioos:station:DISL:BSCA:1,2019-08-10T10:30:00Z,30.3288,-87.8293,2.108,3.4,11111222 
DISL,ioos:station:DISL:BSCA:1,2019-08-10T11:30:00Z,30.3288,-87.8293,2.122,3.14,11111222 
DISL,ioos:station:DISL:BSCA:1,2019-08-10T12:30:00Z,30.3288,-87.8293,2.13,3.4,11111222 
DISL,ioos:station:DISL:BSCA:1,2019-08-10T13:30:00Z,30.3288,-87.8293,2.103,4.12,11111222 
DISL,ioos:station:DISL:BSCA:1,2019-08-10T14:30:00Z,30.3288,-87.8293,2.052,3.53,11111222 
DISL,ioos:station:DISL:BSCA:1,2019-08-10T15:30:00Z,30.3288,-87.8293,2.02,3.76,11111222 
DISL,ioos:station:DISL:BSCA:1,2019-08-10T16:30:00Z,30.3288,-87.8293,1.966,3.54,11111222 
DISL,ioos:station:DISL:BSCA:1,2019-08-10T17:30:00Z,30.3288,-87.8293,1.89,4.63,11111222 
DISL,ioos:station:DISL:BSCA:1,2019-08-10T18:30:00Z,30.3288,-87.8293,1.831,3.1,11111222 
DISL,ioos:station:DISL:BSCA:1,2019-08-10T19:30:00Z,30.3288,-87.8293,1.78,4.19,11111222 
DISL,ioos:station:DISL:BSCA:1,2019-08-10T20:30:00Z,30.3288,-87.8293,1.739,5.49,11111222 
DISL,ioos:station:DISL:BSCA:1,2019-08-10T21:30:00Z,30.3288,-87.8293,1.674,5.62,11111222 
DISL,ioos:station:DISL:BSCA:1,2019-08-10T22:30:00Z,30.3288,-87.8293,1.648,5.53,11111222 
DISL,ioos:station:DISL:BSCA:1,2019-08-10T23:30:00Z,30.3288,-87.8293,1.607,4.71,11111222 
DISL,ioos:station:DISL:BSCA:1,2019-08-11T00:30:00Z,30.3288,-87.8293,1.562,4.35,11111222 
DISL,ioos:station:DISL:BSCA:1,2019-08-11T01:30:00Z,30.3288,-87.8293,1.567,3.52,11111222 
DISL,ioos:station:DISL:BSCA:1,2019-08-11T02:30:00Z,30.3288,-87.8293,1.557,4.4,11111222 
DISL,ioos:station:DISL:BSCA:1,2019-08-11T03:30:00Z,30.3288,-87.8293,1.602,4.06,11111222 
DISL,ioos:station:DISL:BSCA:1,2019-08-11T04:30:00Z,30.3288,-87.8293,1.657,4.51,11111222 
DISL,ioos:station:DISL:BSCA:1,2019-08-11T05:30:00Z,30.3288,-87.8293,1.745,3.93,11111222 
DISL,ioos:station:DISL:BSCA:1,2019-08-11T06:30:00Z,30.3288,-87.8293,1.822,4.46,11111222 
DISL,ioos:station:DISL:BSCA:1,2019-08-11T07:30:00Z,30.3288,-87.8293,1.891,4.69,11111222 
DISL,ioos:station:DISL:BSCA:1,2019-08-11T08:30:00Z,30.3288,-87.8293,1.968,2.05,11111222 
DISL,ioos:station:DISL:BSCA:1,2019-08-11T09:30:00Z,30.3288,-87.8293,2.03,3.96,11111222 
DISL,ioos:station:DISL:BSCA:1,2019-08-11T10:30:00Z,30.3288,-87.8293,2.1,2.35,11111222 
DISL,ioos:station:DISL:BSCA:1,2019-08-11T11:30:00Z,30.3288,-87.8293,2.138,4.21,11111222 
DISL,ioos:station:DISL:BSCA:1,2019-08-11T12:30:00Z,30.3288,-87.8293,2.15,4.12,11111222 
DISL,ioos:station:DISL:BSCA:1,2019-08-11T13:30:00Z,30.3288,-87.8293,2.14,4.31,11111222 
DISL,ioos:station:DISL:BSCA:1,2019-08-11T14:30:00Z,30.3288,-87.8293,2.102,3.64,11111222 
DISL,ioos:station:DISL:BSCA:1,2019-08-11T15:30:00Z,30.3288,-87.8293,2.06,3.82,11111222 
DISL,ioos:station:DISL:BSCA:1,2019-08-11T16:30:00Z,30.3288,-87.8293,1.999,3.54,11111222 
DISL,ioos:station:DISL:BSCA:1,2019-08-11T17:30:00Z,30.3288,-87.8293,1.931,2.9,11111222 
DISL,ioos:station:DISL:BSCA:1,2019-08-11T18:30:00Z,30.3288,-87.8293,1.882,2.79,11111222 
DISL,ioos:station:DISL:BSCA:1,2019-08-11T19:30:00Z,30.3288,-87.8293,1.778,3.43,11111222 
DISL,ioos:station:DISL:BSCA:1,2019-08-11T20:30:00Z,30.3288,-87.8293,1.832,5.56,11111222 
DISL,ioos:station:DISL:BSCA:1,2019-08-11T21:30:00Z,30.3288,-87.8293,1.789,5.52,11111222 
DISL,ioos:station:DISL:BSCA:1,2019-08-11T22:30:00Z,30.3288,-87.8293,1.693,5.35,11111222 
DISL,ioos:station:DISL:BSCA:1,2019-08-11T23:30:00Z,30.3288,-87.8293,1.62,5.2,11111222 
DISL,ioos:station:DISL:BSCA:1,2019-08-12T00:30:00Z,30.3288,-87.8293,1.583,5.17,11111222 
DISL,ioos:station:DISL:BSCA:1,2019-08-12T01:30:00Z,30.3288,-87.8293,1.552,5.06,11111222 
DISL,ioos:station:DISL:BSCA:1,2019-08-12T02:30:00Z,30.3288,-87.8293,1.552,4.3,11111222 
DISL,ioos:station:DISL:BSCA:1,2019-08-12T03:30:00Z,30.3288,-87.8293,1.57,3.38,11111222 
DISL,ioos:station:DISL:BSCA:1,2019-08-12T04:30:00Z,30.3288,-87.8293,1.604,2.63,11111222 